IRIDIUM 35 [B]

Last updated on Tue Dec 04 2018 00:08:35 GMT+0000 (Coordinated Universal Time)

1 24966U 97056B 18337.40150742 .00000111 00000-0 29626-4 0 9991 2 24966 86.4225 95.4396 0002239 99.7958 260.3493 14.38604051109194

Satellite not in orbit

IRIDIUM 35 [B]